| time (UTC) | temp F | wind direction | speed MPH | gust MPH | rain 1hr in | rain 24hr in | rain mn in | humidity % | barometer mb |
| 20260504173108 | 70 | 234 | 5.0 | 12.0 | 0.00 | 0.00 | 0.00 | 47 | 1004.7 |
| 20260504172308 | 71 | 165 | 3.0 | 12.0 | 0.00 | 0.00 | 0.00 | 46 | 1004.8 |
| 20260504171758 | 71 | 152 | 5.0 | 13.0 | 0.00 | 0.00 | 0.00 | 47 | 1004.8 |
| 20260504171258 | 70 | 188 | 7.0 | 13.0 | 0.00 | 0.00 | 0.00 | 45 | 1004.9 |
| 20260504171013 | 71 | 199 | 4.0 | 13.0 | 0.00 | 0.00 | 0.00 | 45 | 1005.0 |
| 20260504170501 | 71 | 185 | 4.0 | 10.0 | 0.00 | 0.00 | 0.00 | 45 | 1004.9 |
| 20260504160134 | 68 | 198 | 4.0 | 15.0 | 0.00 | 0.00 | 0.00 | 52 | 1005.6 |
| 20260504151145 | 65 | 173 | 5.0 | 12.0 | 0.00 | 0.00 | 0.00 | 54 | 1005.9 |
| 20260504150411 | 65 | 153 | 3.0 | 12.0 | 0.00 | 0.00 | 0.00 | 54 | 1005.8 |
| 20260504150129 | 65 | 140 | 4.0 | 13.0 | 0.00 | 0.00 | 0.00 | 56 | 1005.9 |
| 20260504141210 | 61 | 175 | 4.0 | 7.0 | 0.00 | 0.00 | 0.00 | 60 | 1005.9 |
| 20260504140926 | 61 | 201 | 3.0 | 12.0 | 0.00 | 0.00 | 0.00 | 61 | 1005.9 |
| 20260504140654 | 60 | 172 | 4.0 | 12.0 | 0.00 | 0.00 | 0.00 | 60 | 1005.9 |
| 20260504110642 | 51 | 210 | 7.0 | 13.0 | 0.00 | 0.00 | 0.00 | 68 | 1005.7 |
| 20260504110118 | 51 | 158 | 6.0 | 13.0 | 0.00 | 0.00 | 0.00 | 68 | 1005.7 |
| 20260504100417 | 51 | 173 | 6.0 | 10.0 | 0.00 | 0.00 | 0.00 | 66 | 1005.5 |
| 20260504090141 | 51 | 169 | 6.0 | 11.0 | 0.00 | 0.00 | 0.00 | 65 | 1006.1 |
| 20260504081728 | 51 | 176 | 6.0 | 10.0 | 0.00 | 0.00 | 0.00 | 65 | 1006.4 |
| 20260504081014 | 51 | 180 | 6.0 | 11.0 | 0.00 | 0.00 | 0.00 | 65 | 1006.5 |
| 20260504080937 | 51 | 182 | 6.0 | 7.0 | 0.00 | 0.00 | 0.00 | 65 | 1006.4 |
| 20260504060247 | 51 | 179 | 4.0 | 11.0 | 0.00 | 0.00 | 0.00 | 65 | 1008.1 |
| 20260504050745 | 52 | 178 | 5.0 | 9.0 | 0.00 | 0.00 | 0.00 | 63 | 1008.9 |
| 20260504050022 | 52 | 197 | 4.0 | 9.0 | 0.00 | 0.00 | 0.00 | 63 | 1009.1 |
| 20260504045450 | 52 | 157 | 4.0 | 6.0 | 0.00 | 0.00 | 0.00 | 63 | 1009.1 |
| 20260504044949 | 51 | 171 | 3.0 | 5.0 | 0.00 | 0.00 | 0.00 | 63 | 1009.1 |
| 20260504044451 | 51 | 176 | 4.0 | 6.0 | 0.00 | 0.00 | 0.00 | 63 | 1009.0 |
| 20260504044204 | 51 | 176 | 4.0 | 6.0 | 0.00 | 0.00 | 0.00 | 64 | 1009.0 |
| 20260504043445 | 52 | 178 | 4.0 | 6.0 | 0.00 | 0.00 | 0.00 | 64 | 1009.1 |
| 20260504042914 | 52 | 179 | 4.0 | 6.0 | 0.00 | 0.00 | 0.00 | 64 | 1009.1 |
| 20260504042345 | 52 | 180 | 4.0 | 9.0 | 0.00 | 0.00 | 0.00 | 63 | 1009.2 |
| 20260504042104 | 52 | 178 | 3.0 | 9.0 | 0.00 | 0.00 | 0.00 | 63 | 1009.3 |
| 20260504041340 | 52 | 184 | 3.0 | 6.0 | 0.00 | 0.00 | 0.00 | 63 | 1009.3 |
| 20260504041033 | 52 | 184 | 3.0 | 10.0 | 0.00 | 0.00 | 0.00 | 62 | 1009.4 |
| 20260504040227 | 52 | 184 | 3.0 | 10.0 | 0.00 | 0.00 | 0.00 | 62 | 1009.5 |
| 20260504035702 | 52 | 173 | 4.0 | 11.0 | 0.00 | 0.00 | 0.00 | 61 | 1009.6 |
| 20260504035157 | 52 | 192 | 5.0 | 11.0 | 0.00 | 0.00 | 0.00 | 61 | 1009.6 |
| 20260504035149 | 52 | 185 | 4.0 | 9.0 | 0.00 | 0.00 | 0.00 | 60 | 1009.6 |
| 20260504034129 | 52 | 171 | 4.0 | 8.0 | 0.00 | 0.00 | 0.00 | 60 | 1009.9 |
| 20260504033555 | 52 | 189 | 3.0 | 6.0 | 0.00 | 0.00 | 0.00 | 61 | 1009.7 |
| 20260504033048 | 52 | 179 | 3.0 | 6.0 | 0.00 | 0.00 | 0.00 | 60 | 1009.8 |
| 20260504032537 | 52 | 178 | 4.0 | 7.0 | 0.00 | 0.00 | 0.00 | 60 | 1009.7 |
| 20260504032041 | 52 | 179 | 3.0 | 7.0 | 0.00 | 0.00 | 0.00 | 60 | 1009.7 |
| 20260504031503 | 52 | 184 | 3.0 | 5.0 | 0.00 | 0.00 | 0.00 | 60 | 1009.9 |
| 20260504031006 | 52 | 184 | 3.0 | 5.0 | 0.00 | 0.00 | 0.00 | 60 | 1009.9 |
| 20260504030435 | 52 | 184 | 3.0 | 7.0 | 0.00 | 0.00 | 0.00 | 59 | 1010.2 |
| 20260504025913 | 52 | 171 | 2.0 | 6.0 | 0.00 | 0.00 | 0.00 | 58 | 1010.2 |
| 20260504025357 | 53 | 189 | 2.0 | 6.0 | 0.00 | 0.00 | 0.00 | 58 | 1010.4 |
| 20260504025116 | 53 | 191 | 2.0 | 7.0 | 0.00 | 0.00 | 0.00 | 58 | 1010.6 |
| 20260504024359 | 53 | 224 | 3.0 | 10.0 | 0.00 | 0.00 | 0.00 | 57 | 1010.5 |
| 20260504023833 | 53 | 173 | 3.0 | 10.0 | 0.00 | 0.00 | 0.00 | 56 | 1010.5 |
| 20260504023320 | 53 | 202 | 2.0 | 7.0 | 0.00 | 0.00 | 0.00 | 55 | 1010.6 |
| 20260504022813 | 53 | 190 | 2.0 | 7.0 | 0.00 | 0.00 | 0.00 | 54 | 1010.5 |
| 20260504022311 | 53 | 175 | 0.0 | 2.0 | 0.00 | 0.00 | 0.00 | 53 | 1010.4 |
| 20260504021753 | 53 | 194 | 0.0 | 3.0 | 0.00 | 0.00 | 0.00 | 53 | 1010.3 |
| 20260504021237 | 53 | 194 | 1.0 | 3.0 | 0.00 | 0.00 | 0.00 | 53 | 1010.2 |
| 20260504021202 | 53 | 200 | 1.0 | 3.0 | 0.00 | 0.00 | 0.00 | 53 | 1010.2 |
| 20260504020151 | 54 | 200 | 1.0 | 3.0 | 0.00 | 0.00 | 0.00 | 52 | 1010.3 |
| 20260504015543 | 54 | 200 | 1.0 | 3.0 | 0.00 | 0.00 | 0.00 | 52 | 1010.3 |
| 20260504015046 | 54 | 200 | 0.0 | 3.0 | 0.00 | 0.00 | 0.00 | 51 | 1010.2 |
| 20260504014515 | 54 | 211 | 0.0 | 0.0 | 0.00 | 0.00 | 0.00 | 51 | 1010.2 |
| 20260504013939 | 54 | 211 | 0.0 | 3.0 | 0.00 | 0.00 | 0.00 | 51 | 1010.1 |
| 20260504013627 | 55 | 211 | 1.0 | 4.0 | 0.00 | 0.00 | 0.00 | 50 | 1010.1 |
| 20260504012827 | 55 | 211 | 1.0 | 6.0 | 0.00 | 0.00 | 0.00 | 50 | 1010.0 |
| 20260504012331 | 55 | 211 | 3.0 | 6.0 | 0.00 | 0.00 | 0.00 | 49 | 1010.1 |
| 20260504011821 | 55 | 224 | 2.0 | 9.0 | 0.00 | 0.00 | 0.00 | 49 | 1010.0 |
| 20260504011324 | 55 | 186 | 2.0 | 13.0 | 0.00 | 0.00 | 0.00 | 49 | 1010.1 |
| 20260504010803 | 56 | 165 | 3.0 | 13.0 | 0.00 | 0.00 | 0.00 | 49 | 1010.1 |
| 20260504010251 | 56 | 175 | 2.0 | 10.0 | 0.00 | 0.00 | 0.00 | 48 | 1010.1 |
| 20260504005716 | 56 | 176 | 2.0 | 6.0 | 0.00 | 0.00 | 0.00 | 48 | 1010.0 |
| 20260504005147 | 56 | 174 | 1.0 | 6.0 | 0.00 | 0.00 | 0.00 | 48 | 1010.0 |
| 20260504004647 | 56 | 163 | 1.0 | 5.0 | 0.00 | 0.00 | 0.00 | 48 | 1010.0 |
| 20260504004415 | 56 | 178 | 2.0 | 7.0 | 0.00 | 0.00 | 0.00 | 47 | 1010.0 |
| 20260504003637 | 56 | 182 | 3.0 | 10.0 | 0.00 | 0.00 | 0.00 | 47 | 1010.0 |
| 20260504003139 | 57 | 193 | 2.0 | 10.0 | 0.00 | 0.00 | 0.00 | 47 | 1010.1 |
| 20260504002623 | 57 | 155 | 2.0 | 5.0 | 0.00 | 0.00 | 0.00 | 48 | 1010.0 |
| 20260504002346 | 57 | 162 | 2.0 | 7.0 | 0.00 | 0.00 | 0.00 | 49 | 1009.9 |
| 20260504001613 | 57 | 158 | 3.0 | 7.0 | 0.00 | 0.00 | 0.00 | 48 | 1010.0 |
| 20260504001115 | 57 | 179 | 4.0 | 11.0 | 0.00 | 0.00 | 0.00 | 48 | 1010.0 |
| 20260504000552 | 57 | 176 | 3.0 | 11.0 | 0.00 | 0.00 | 0.00 | 47 | 1010.0 |
| 20260504000300 | 57 | 170 | 3.0 | 11.0 | 0.00 | 0.00 | 0.00 | 48 | 1009.9 |
| 20260504000032 | 57 | 207 | 3.0 | 11.0 | 0.00 | 0.00 | 0.00 | 47 | 1009.9 |
| 20260503235017 | 57 | 166 | 2.0 | 8.0 | 0.00 | 0.00 | 0.00 | 48 | 1010.0 |
| 20260503234520 | 57 | 168 | 3.0 | 8.0 | 0.00 | 0.00 | 0.00 | 47 | 1010.1 |
| 20260503234005 | 57 | 208 | 3.0 | 9.0 | 0.00 | 0.00 | 0.00 | 47 | 1010.1 |
| 20260503233502 | 57 | 196 | 3.0 | 9.0 | 0.00 | 0.00 | 0.00 | 48 | 1010.2 |
| 20260503232938 | 58 | 215 | 3.0 | 9.0 | 0.00 | 0.00 | 0.00 | 48 | 1010.4 |
| 20260503232437 | 58 | 190 | 4.0 | 13.0 | 0.00 | 0.00 | 0.00 | 48 | 1010.3 |
| 20260503231913 | 58 | 188 | 3.0 | 13.0 | 0.00 | 0.00 | 0.00 | 47 | 1010.3 |
| 20260503231351 | 58 | 227 | 2.0 | 7.0 | 0.00 | 0.00 | 0.00 | 47 | 1010.2 |
| 20260503230843 | 58 | 217 | 2.0 | 9.0 | 0.00 | 0.00 | 0.00 | 48 | 1010.3 |
| 20260503230325 | 58 | 272 | 3.0 | 11.0 | 0.00 | 0.00 | 0.00 | 46 | 1010.4 |
| 20260503230049 | 58 | 166 | 4.0 | 14.0 | 0.00 | 0.00 | 0.00 | 47 | 1010.4 |
| 20260503225319 | 58 | 248 | 3.0 | 14.0 | 0.00 | 0.00 | 0.00 | 47 | 1010.3 |
| 20260503224813 | 58 | 220 | 2.0 | 11.0 | 0.00 | 0.00 | 0.00 | 47 | 1010.3 |
| 20260503224251 | 58 | 188 | 2.0 | 6.0 | 0.00 | 0.00 | 0.00 | 48 | 1010.4 |
| 20260503223754 | 58 | 276 | 3.0 | 6.0 | 0.00 | 0.00 | 0.00 | 47 | 1010.5 |
| 20260503223222 | 58 | 173 | 3.0 | 11.0 | 0.00 | 0.00 | 0.00 | 47 | 1010.6 |
| 20260503222649 | 58 | 178 | 3.0 | 10.0 | 0.00 | 0.00 | 0.00 | 46 | 1010.5 |
| 20260503222149 | 58 | 226 | 3.0 | 10.0 | 0.00 | 0.00 | 0.00 | 47 | 1010.6 |
| 20260503221620 | 58 | 246 | 2.0 | 10.0 | 0.00 | 0.00 | 0.00 | 45 | 1010.5 |
| 20260503221119 | 58 | 205 | 2.0 | 7.0 | 0.00 | 0.00 | 0.00 | 45 | 1010.6 |
| 20260503220555 | 58 | 182 | 3.0 | 9.0 | 0.00 | 0.00 | 0.00 | 45 | 1010.7 |
| 20260503220055 | 59 | 175 | 3.0 | 9.0 | 0.00 | 0.00 | 0.00 | 46 | 1010.7 |
| 20260503215539 | 59 | 208 | 3.0 | 9.0 | 0.00 | 0.00 | 0.00 | 45 | 1010.7 |
| 20260503215031 | 59 | 202 | 3.0 | 9.0 | 0.00 | 0.00 | 0.00 | 45 | 1010.7 |
| 20260503214727 | 59 | 168 | 3.0 | 13.0 | 0.00 | 0.00 | 0.00 | 46 | 1010.7 |
| 20260503213934 | 59 | 223 | 3.0 | 13.0 | 0.00 | 0.00 | 0.00 | 46 | 1010.7 |
| 20260503213405 | 59 | 166 | 3.0 | 11.0 | 0.00 | 0.00 | 0.00 | 45 | 1010.6 |
| 20260503212855 | 59 | 219 | 4.0 | 7.0 | 0.00 | 0.00 | 0.00 | 44 | 1010.5 |
| 20260503212330 | 59 | 214 | 4.0 | 13.0 | 0.00 | 0.00 | 0.00 | 45 | 1010.5 |
| 20260503211757 | 59 | 193 | 4.0 | 13.0 | 0.00 | 0.00 | 0.00 | 45 | 1010.6 |
| 20260503211300 | 59 | 171 | 3.0 | 7.0 | 0.00 | 0.00 | 0.00 | 47 | 1010.6 |
| 20260503210730 | 59 | 173 | 3.0 | 11.0 | 0.00 | 0.00 | 0.00 | 46 | 1010.6 |
| 20260503210230 | 59 | 169 | 4.0 | 11.0 | 0.00 | 0.00 | 0.00 | 47 | 1010.6 |
| 20260503205925 | 59 | 187 | 6.0 | 17.0 | 0.00 | 0.00 | 0.00 | 46 | 1010.6 |
| 20260503205201 | 59 | 173 | 5.0 | 17.0 | 0.00 | 0.00 | 0.00 | 45 | 1010.7 |
| 20260503204630 | 59 | 209 | 4.0 | 11.0 | 0.00 | 0.00 | 0.00 | 45 | 1010.8 |
| 20260503204122 | 59 | 174 | 3.0 | 15.0 | 0.00 | 0.00 | 0.00 | 45 | 1010.8 |
| 20260503203600 | 59 | 202 | 4.0 | 15.0 | 0.00 | 0.00 | 0.00 | 45 | 1010.7 |
| 20260503203026 | 59 | 166 | 5.0 | 13.0 | 0.00 | 0.00 | 0.00 | 44 | 1010.8 |
| 20260503202530 | 60 | 211 | 4.0 | 10.0 | 0.00 | 0.00 | 0.00 | 45 | 1011.0 |
| 20260503202016 | 60 | 151 | 3.0 | 15.0 | 0.00 | 0.00 | 0.00 | 45 | 1010.8 |
| 20260503201520 | 59 | 164 | 4.0 | 15.0 | 0.00 | 0.00 | 0.00 | 45 | 1011.1 |
| 20260503200945 | 59 | 197 | 4.0 | 10.0 | 0.00 | 0.00 | 0.00 | 45 | 1011.1 |
| 20260503200713 | 60 | 196 | 3.0 | 10.0 | 0.00 | 0.00 | 0.00 | 44 | 1011.1 |
| 20260503195939 | 60 | 319 | 3.0 | 12.0 | 0.00 | 0.00 | 0.00 | 44 | 1011.4 |
| 20260503195442 | 61 | 185 | 3.0 | 12.0 | 0.00 | 0.00 | 0.00 | 44 | 1011.5 |
| 20260503194932 | 61 | 163 | 1.0 | 6.0 | 0.00 | 0.00 | 0.00 | 46 | 1011.6 |
| 20260503194430 | 61 | 160 | 2.0 | 7.0 | 0.00 | 0.00 | 0.00 | 45 | 1011.7 |
| 20260503193906 | 60 | 284 | 3.0 | 10.0 | 0.00 | 0.00 | 0.00 | 44 | 1011.7 |
| 20260503193341 | 61 | 215 | 4.0 | 11.0 | 0.00 | 0.00 | 0.00 | 43 | 1012.0 |
| 20260503193113 | 60 | 183 | 4.0 | 11.0 | 0.00 | 0.00 | 0.00 | 44 | 1011.9 |
| 20260503192319 | 61 | 190 | 4.0 | 18.0 | 0.00 | 0.00 | 0.00 | 43 | 1012.0 |
| 20260503191819 | 61 | 196 | 4.0 | 18.0 | 0.00 | 0.00 | 0.00 | 43 | 1012.0 |
| 20260503191322 | 61 | 292 | 3.0 | 13.0 | 0.00 | 0.00 | 0.00 | 44 | 1012.1 |
| 20260503190805 | 61 | 268 | 3.0 | 13.0 | 0.00 | 0.00 | 0.00 | 43 | 1012.0 |
| 20260503190256 | 60 | 227 | 2.0 | 9.0 | 0.00 | 0.00 | 0.00 | 44 | 1012.2 |
| 20260503185736 | 60 | 203 | 2.0 | 9.0 | 0.00 | 0.00 | 0.00 | 45 | 1012.2 |
| 20260503185233 | 60 | 211 | 3.0 | 7.0 | 0.00 | 0.00 | 0.00 | 44 | 1012.3 |
| 20260503184722 | 60 | 225 | 2.0 | 7.0 | 0.00 | 0.00 | 0.00 | 45 | 1012.4 |
| 20260503184206 | 60 | 195 | 2.0 | 7.0 | 0.00 | 0.00 | 0.00 | 45 | 1012.5 |
| 20260503183708 | 60 | 190 | 3.0 | 7.0 | 0.00 | 0.00 | 0.00 | 44 | 1012.5 |
| 20260503183204 | 60 | 178 | 3.0 | 10.0 | 0.00 | 0.00 | 0.00 | 44 | 1012.5 |
| 20260503182709 | 60 | 238 | 3.0 | 10.0 | 0.00 | 0.00 | 0.00 | 42 | 1012.6 |
| 20260503182144 | 60 | 236 | 3.0 | 15.0 | 0.00 | 0.00 | 0.00 | 42 | 1012.7 |
| 20260503181905 | 60 | 246 | 4.0 | 15.0 | 0.00 | 0.00 | 0.00 | 42 | 1012.9 |
| 20260503181359 | 60 | 279 | 4.0 | 15.0 | 0.00 | 0.00 | 0.00 | 42 | 1012.8 |
| 20260503180632 | 61 | 211 | 3.0 | 15.0 | 0.00 | 0.00 | 0.00 | 40 | 1013.0 |
| 20260503180333 | 61 | 209 | 4.0 | 10.0 | 0.00 | 0.00 | 0.00 | 40 | 1013.0 |
| 20260503175543 | 61 | 196 | 3.0 | 10.0 | 0.00 | 0.00 | 0.00 | 43 | 1013.1 |
| 20260503175037 | 61 | 288 | 2.0 | 5.0 | 0.00 | 0.00 | 0.00 | 45 | 1013.1 |
| 20260503174534 | 61 | 150 | 2.0 | 6.0 | 0.00 | 0.00 | 0.00 | 43 | 1013.2 |
| 20260503174027 | 61 | 263 | 3.0 | 9.0 | 0.00 | 0.00 | 0.00 | 41 | 1013.0 |
| 20260503173527 | 60 | 193 | 4.0 | 10.0 | 0.00 | 0.00 | 0.00 | 42 | 1013.1 |